This demonstration page uses our WeatherBlox Daily Observations layout. Learn more.

Left ArrowRight Arrow

38.80484, -77.04692

Hourly Observations for September 9, 2020

Temp ( °F °C ) Dew Point ( °F °C ) Humidity (%) Winds ( mph kmh ) Pressure ( in mb ) Visibility ( mi km ) Precip ( " mm )
12:52 am 00:52 Cloudy 75 23.9 70 21.1 84 84 ENE 7 11 30.18 1022 10 16 N/A
1:26 am 01:26 Cloudy 75 23.9 70 21.1 84 84 NE 7 11 30.19 1022 10 16 N/A
1:52 am 01:52 Mostly Cloudy 75 23.9 70 21.1 84 84 NE 6 9 30.19 1022 10 16 N/A
2:01 am 02:01 Cloudy 74 23.3 70 21.1 88 88 ENE 6 9 30.19 1022 10 16 N/A
2:52 am 02:52 Mostly Cloudy 73 22.8 70 21.1 90 90 ENE 6 9 30.19 1022 10 16 N/A
3:52 am 03:52 Cloudy 73 22.8 70 21.1 90 90 NE 5 7 30.19 1022 10 16 N/A
4:46 am 04:46 Cloudy 73 23 70 21 89 89 NE 7 11 30.19 1022 10 16 N/A
4:52 am 04:52 Cloudy 73 22.8 70 21.1 90 90 NE 7 11 30.19 1022 10 16 N/A
5:23 am 05:23 Cloudy 73 22.8 70 21.1 90 90 NNE 7 11 30.19 1022 10 16 N/A
5:52 am 05:52 Cloudy 73 22.8 70 21.1 90 90 NE 8 13 30.19 1022 10 16 N/A
6:30 am 06:30 Cloudy 73 22.8 70 21.1 90 90 NE 6 9 30.19 1022 10 16 N/A
6:52 am 06:52 Cloudy 73 22.8 70 21.1 90 90 NE 6 9 30.19 1023 10 16 N/A
7:30 am 07:30 Cloudy 73 22.8 71 21.7 94 94 NE 7 11 30.21 1023 10 16 N/A
7:52 am 07:52 Cloudy 74 23.3 71 21.7 91 91 ENE 7 11 30.22 1024 10 16 N/A
8:34 am 08:34 Cloudy 74 23.3 71 21.7 91 91 NE 5 7 30.25 1024 10 16 N/A
8:52 am 08:52 Cloudy 75 23.9 71 21.7 88 88 NE 6 9 30.25 1024 10 16 N/A
9:52 am 09:52 Cloudy 76 24.4 71 21.7 85 85 NNE 7 11 30.25 1024 10 16 N/A
10:05 am 10:05 Cloudy 76 24.4 71 21.7 85 85 NNE 8 13 30.26 1025 10 16 N/A
10:19 am 10:19 Cloudy 76 24.4 71 21.7 85 85 NE 8 13 30.26 1025 10 16 N/A
10:37 am 10:37 Cloudy with Light Rain 76 24.4 72 22.2 88 88 NNE 8 13 30.26 1025 10 16 0.00 0.00
10:52 am 10:52 Cloudy with Light Rain 76 24.4 72 22.2 88 88 NNE 8 13 30.26 1025 10 16 0.00 0.00
11:33 am 11:33 Cloudy 77 25 72 22.2 85 85 NNE 8 13 30.26 1025 10 16 0.00 0.00
11:52 am 11:52 Cloudy 79 26.1 72 22.2 79 79 NE 8 13 30.25 1025 10 16 0.00 0.00
12:25 pm 12:25 Cloudy with Light Rain 78 25.6 72 22.2 82 82 ENE 9 15 30.25 1024 4 6 0.00 0.00
12:32 pm 12:32 Cloudy with Rain 77 25 73 22.8 88 88 ENE 10 17 30.26 1025 2 2 0.00 0.00
12:42 pm 12:42 Cloudy with Light Rain 76 24.4 73 22.8 91 91 NE 8 13 30.26 1025 2 3 0.05 1.27
12:52 pm 12:52 Cloudy with Rain 75 23.9 73 22.8 94 94 NE 12 19 30.26 1025 2 2 0.05 1.27
1:03 pm 13:03 Cloudy with Light Rain 75 23.9 73 22.8 94 94 NNE 7 11 30.26 1025 3 4 0.03 0.76
1:14 pm 13:14 Cloudy with Mist and Fog 76 24.4 73 22.8 91 91 N 7 11 30.26 1025 5 8 0.03 0.76
1:48 pm 13:48 Cloudy 75 24 73 23 94 94 NNE 9 15 30.26 1025 10 16 0.03 0.76
1:52 pm 13:52 Cloudy 76 24.4 73 22.8 91 91 NE 10 17 30.26 1025 10 16 0.03 0.76
2:52 pm 14:52 Cloudy with Light Rain 77 25 73 22.8 88 88 NE 10 17 30.24 1024 8 13 0.00 0.00
3:48 pm 15:48 Cloudy 79 26 73 23 84 84 NE 10 17 30.23 1024 9 14 0.00 0.00
3:52 pm 15:52 Cloudy 78 25.6 74 23.3 87 87 NE 10 17 30.22 1024 10 16 0.00 0.00
4:01 pm 16:01 Cloudy 78 25.6 74 23.3 87 87 NE 10 17 30.22 1023 10 16 N/A
4:09 pm 16:09 Cloudy 79 26.1 74 23.3 85 85 NE 9 15 30.22 1023 10 16 N/A
4:52 pm 16:52 Cloudy 78 25.6 73 22.8 85 85 NE 10 17 30.22 1023 10 16 N/A
5:05 pm 17:05 Cloudy 78 25.6 73 22.8 85 85 NNE 8 13 30.22 1023 10 16 N/A
5:09 pm 17:09 Cloudy 78 25.6 73 22.8 85 85 NE 12 19 30.22 1023 10 16 N/A
5:29 pm 17:29 Cloudy 78 25.6 74 23.3 87 87 NE 9 15 30.23 1024 10 16 N/A
5:47 pm 17:47 Cloudy with Light Rain 79 26 73 23 84 84 NE 10 17 30.23 1024 5 8 0.00 0.00
5:52 pm 17:52 Cloudy with Light Rain 77 25 74 23.3 90 90 NE 10 17 30.23 1024 5 8 0.00 0.00
6:52 pm 18:52 Cloudy with Light Rain 77 25 74 23.3 90 90 NE 6 9 30.23 1024 7 11 0.03 0.76
7:52 pm 19:52 Cloudy 77 25 74 23.3 90 90 NE 8 13 30.22 1024 10 16 0.01 0.25
8:29 pm 20:29 Cloudy with Rain 77 25 74 23.3 90 90 NE 10 17 30.24 1024 5 8 0.00 0.00
8:38 pm 20:38 Cloudy with Light Rain 77 25 75 23.9 94 94 NE 13 20 30.24 1024 6 10 0.01 0.25
8:44 pm 20:44 Cloudy with Heavy Rain 77 25 75 23.9 94 94 NE 14 22 30.25 1024 3 4 0.04 1.02
8:47 pm 20:47 Cloudy with Heavy Rain 75 24 75 24 100 100 NE 17 28 30.24 1024 2 3 0.08 2.03
8:52 pm 20:52 Cloudy with Heavy Rain 76 24.4 75 23.9 97 97 NE 17 28 30.24 1024 2 2 0.14 3.56
8:56 pm 20:56 Cloudy with Rain 76 24.4 75 23.9 97 97 NNE 14 22 30.25 1024 3 4 0.04 1.02
8:59 pm 20:59 Cloudy with Light Rain 76 24.4 75 23.9 97 97 NE 13 20 30.25 1024 3 5 0.04 1.02
9:06 pm 21:06 Cloudy with Heavy Rain 77 25 75 23.9 94 94 ENE 12 19 30.25 1024 2 3 0.08 2.03
9:09 pm 21:09 Cloudy with Heavy Rain 77 25 75 23.9 94 94 NNE 9 15 30.26 1025 2 3 0.12 3.05
9:16 pm 21:16 Cloudy with Rain 76 24.4 75 23.9 97 97 NNE 8 13 30.26 1025 2 3 0.20 5.08
9:20 pm 21:20 Cloudy with Heavy Rain 76 24.4 75 23.9 97 97 NNE 9 15 30.26 1025 3 5 0.22 5.59
9:29 pm 21:29 Cloudy with Light Rain 76 24.4 75 23.9 97 97 NNE 10 17 30.25 1024 4 6 0.25 6.35
9:43 pm 21:43 Cloudy with Heavy Rain 76 24.4 75 23.9 97 97 NE 13 20 30.25 1024 3 4 0.29 7.37
9:48 pm 21:48 Cloudy with Heavy Rain 75 24 75 24 100 100 NE 12 19 30.25 1024 2 3 0.34 8.64
9:52 pm 21:52 Cloudy with Light Rain 76 24.4 75 23.9 97 97 NE 10 17 30.24 1024 3 5 0.35 8.89
9:54 pm 21:54 Cloudy with Light Rain 76 24.4 75 23.9 97 97 NE 9 15 30.25 1024 4 6 0.01 0.25
10:11 pm 22:11 Cloudy with Light Rain 77 25 75 23.9 94 94 NE 10 17 30.25 1024 8 13 0.01 0.25
10:15 pm 22:15 Cloudy with Light Rain 77 25 75 23.9 94 94 ENE 10 17 30.25 1024 8 13 0.01 0.25
10:45 pm 22:45 Cloudy with Light Rain 77 25 75 23.9 94 94 ENE 8 13 30.25 1024 6 10 0.03 0.76
10:52 pm 22:52 Cloudy with Light Rain 77 25 75 23.9 94 94 NE 8 13 30.25 1024 6 10 0.03 0.76
11:23 pm 23:23 Cloudy 77 25 74 23.3 90 90 ENE 8 13 30.25 1024 10 16 0.00 0.00
11:52 pm 23:52 Cloudy 76 24.4 74 23.3 94 94 ENE 7 11 30.24 1024 10 16 0.00 0.00

Powered by AerisWeather